Year,Month,Day,Hour,Minute,Value (Times are PST for temperature in C)
2006,09,24,00,00,9.90
2006,09,24,00,01,9.90
2006,09,24,00,02,9.90
2006,09,24,00,03,9.90
2006,09,24,00,04,9.90
2006,09,24,00,05,9.90
2006,09,24,00,06,9.80
2006,09,24,00,07,9.80
2006,09,24,00,08,9.80
2006,09,24,00,09,9.70
2006,09,24,00,10,9.70
2006,09,24,00,11,9.70
2006,09,24,00,12,9.70
2006,09,24,00,13,9.70
2006,09,24,00,14,9.70
2006,09,24,00,15,9.70
2006,09,24,00,16,9.70
2006,09,24,00,17,9.60
2006,09,24,00,18,9.60
2006,09,24,00,19,9.60
2006,09,24,00,20,9.40
2006,09,24,00,21,9.40
2006,09,24,00,22,9.30
2006,09,24,00,23,9.30
2006,09,24,00,24,9.20
2006,09,24,00,25,9.20
2006,09,24,00,26,9.20
2006,09,24,00,27,9.20
2006,09,24,00,28,9.20
2006,09,24,00,29,9.20
2006,09,24,00,30,9.20
2006,09,24,00,31,9.20
2006,09,24,00,32,9.20
2006,09,24,00,33,9.20
2006,09,24,00,34,9.20
2006,09,24,00,35,9.30
2006,09,24,00,36,9.30
2006,09,24,00,37,9.30
2006,09,24,00,38,9.30
2006,09,24,00,39,9.30
2006,09,24,00,40,9.30
2006,09,24,00,41,9.30
2006,09,24,00,42,9.30
2006,09,24,00,43,9.30
2006,09,24,00,44,9.30
2006,09,24,00,45,9.30
2006,09,24,00,46,9.30
2006,09,24,00,47,9.30
2006,09,24,00,48,9.20
2006,09,24,00,49,9.20
2006,09,24,00,50,9.20
2006,09,24,00,51,9.20
2006,09,24,00,52,9.20
2006,09,24,00,53,9.20
2006,09,24,00,54,9.20
2006,09,24,00,55,9.20
2006,09,24,00,56,9.20
2006,09,24,00,57,9.20
2006,09,24,00,58,9.20
2006,09,24,00,59,9.20
2006,09,24,01,00,9.20
2006,09,24,01,01,9.20
2006,09,24,01,02,9.20
2006,09,24,01,03,9.20
2006,09,24,01,04,9.20
2006,09,24,01,05,9.20
2006,09,24,01,06,9.10
2006,09,24,01,07,9.10
2006,09,24,01,08,9.10
2006,09,24,01,09,9.10
2006,09,24,01,10,9.10
2006,09,24,01,11,9.10
2006,09,24,01,12,9.10
2006,09,24,01,13,9.10
2006,09,24,01,14,9.00
2006,09,24,01,15,9.00
2006,09,24,01,16,9.00
2006,09,24,01,17,9.00
2006,09,24,01,18,9.00
2006,09,24,01,19,9.00
2006,09,24,01,20,9.00
2006,09,24,01,21,9.00
2006,09,24,01,22,9.00
2006,09,24,01,23,9.00
2006,09,24,01,24,9.00
2006,09,24,01,25,9.00
2006,09,24,01,26,9.00
2006,09,24,01,27,9.10
2006,09,24,01,28,9.10
2006,09,24,01,29,9.10
2006,09,24,01,30,9.10
2006,09,24,01,31,9.10
2006,09,24,01,32,9.10
2006,09,24,01,33,9.10
2006,09,24,01,34,9.00
2006,09,24,01,35,9.00
2006,09,24,01,36,9.00
2006,09,24,01,37,9.00
2006,09,24,01,38,8.90
2006,09,24,01,39,8.90
2006,09,24,01,40,8.90
2006,09,24,01,41,8.80
2006,09,24,01,42,8.80
2006,09,24,01,43,8.70
2006,09,24,01,44,8.70
2006,09,24,01,45,8.70
2006,09,24,01,46,8.70
2006,09,24,01,47,8.70
2006,09,24,01,48,8.70
2006,09,24,01,49,8.70
2006,09,24,01,50,8.70
2006,09,24,01,51,8.70
2006,09,24,01,52,8.70
2006,09,24,01,53,8.70
2006,09,24,01,54,8.70
2006,09,24,01,55,8.70
2006,09,24,01,56,8.70
2006,09,24,01,57,8.70
2006,09,24,01,58,8.70
2006,09,24,01,59,8.70
2006,09,24,02,00,8.70
2006,09,24,02,01,8.70
2006,09,24,02,02,8.70
2006,09,24,02,03,8.70
2006,09,24,02,04,8.70
2006,09,24,02,05,8.70
2006,09,24,02,06,8.70
2006,09,24,02,07,8.70
2006,09,24,02,08,8.70
2006,09,24,02,09,8.70
2006,09,24,02,10,8.70
2006,09,24,02,11,8.70
2006,09,24,02,12,8.70
2006,09,24,02,13,8.70
2006,09,24,02,14,8.70
2006,09,24,02,15,8.70
2006,09,24,02,16,8.60
2006,09,24,02,17,8.60
2006,09,24,02,18,8.60
2006,09,24,02,19,8.60
2006,09,24,02,20,8.60
2006,09,24,02,21,8.50
2006,09,24,02,22,8.50
2006,09,24,02,23,8.50
2006,09,24,02,24,8.40
2006,09,24,02,25,8.40
2006,09,24,02,26,8.40
2006,09,24,02,27,8.40
2006,09,24,02,28,8.40
2006,09,24,02,29,8.40
2006,09,24,02,30,8.40
2006,09,24,02,31,8.40
2006,09,24,02,32,8.40
2006,09,24,02,33,8.50
2006,09,24,02,34,8.50
2006,09,24,02,35,8.50
2006,09,24,02,36,8.50
2006,09,24,02,37,8.50
2006,09,24,02,38,8.50
2006,09,24,02,39,8.50
2006,09,24,02,40,8.60
2006,09,24,02,41,8.60
2006,09,24,02,42,8.60
2006,09,24,02,43,8.60
2006,09,24,02,44,8.60
2006,09,24,02,45,8.60
2006,09,24,02,46,8.70
2006,09,24,02,47,8.70
2006,09,24,02,48,8.70
2006,09,24,02,49,8.70
2006,09,24,02,50,8.70
2006,09,24,02,51,8.70
2006,09,24,02,52,8.70
2006,09,24,02,53,8.70
2006,09,24,02,54,8.70
2006,09,24,02,55,8.70
2006,09,24,02,56,8.60
2006,09,24,02,57,8.60
2006,09,24,02,58,8.60
2006,09,24,02,59,8.50
2006,09,24,03,00,8.50
2006,09,24,03,01,8.50
2006,09,24,03,02,8.50
2006,09,24,03,03,8.40
2006,09,24,03,04,8.40
2006,09,24,03,05,8.40
2006,09,24,03,06,8.40
2006,09,24,03,07,8.30
2006,09,24,03,08,8.30
2006,09,24,03,09,8.30
2006,09,24,03,10,8.30
2006,09,24,03,11,8.30
2006,09,24,03,12,8.20
2006,09,24,03,13,8.20
2006,09,24,03,14,8.20
2006,09,24,03,15,8.20
2006,09,24,03,16,8.20
2006,09,24,03,17,8.20
2006,09,24,03,18,8.20
2006,09,24,03,19,8.20
2006,09,24,03,20,8.20
2006,09,24,03,21,8.20
2006,09,24,03,22,8.20
2006,09,24,03,23,8.20
2006,09,24,03,24,8.10
2006,09,24,03,25,8.10
2006,09,24,03,26,8.10
2006,09,24,03,27,8.10
2006,09,24,03,28,8.10
2006,09,24,03,29,8.10
2006,09,24,03,30,8.10
2006,09,24,03,31,8.00
2006,09,24,03,32,8.00
2006,09,24,03,33,8.00
2006,09,24,03,34,8.00
2006,09,24,03,35,8.00
2006,09,24,03,36,8.00
2006,09,24,03,37,8.10
2006,09,24,03,38,8.10
2006,09,24,03,39,8.10
2006,09,24,03,40,8.10
2006,09,24,03,41,8.10
2006,09,24,03,42,8.10
2006,09,24,03,43,8.10
2006,09,24,03,44,8.10
2006,09,24,03,45,8.10
2006,09,24,03,46,8.10
2006,09,24,03,47,8.10
2006,09,24,03,48,8.00
2006,09,24,03,49,8.00
2006,09,24,03,50,8.00
2006,09,24,03,51,7.90
2006,09,24,03,52,7.90
2006,09,24,03,53,7.80
2006,09,24,03,54,7.80
2006,09,24,03,55,7.80
2006,09,24,03,56,7.70
2006,09,24,03,57,7.70
2006,09,24,03,58,7.70
2006,09,24,03,59,7.60
2006,09,24,04,00,7.60
2006,09,24,04,01,7.60
2006,09,24,04,02,7.60
2006,09,24,04,03,7.50
2006,09,24,04,04,7.50
2006,09,24,04,05,7.50
2006,09,24,04,06,7.50
2006,09,24,04,07,7.50
2006,09,24,04,08,7.60
2006,09,24,04,09,7.60
2006,09,24,04,10,7.60
2006,09,24,04,11,7.70
2006,09,24,04,12,7.70
2006,09,24,04,13,7.70
2006,09,24,04,14,7.70
2006,09,24,04,15,7.70
2006,09,24,04,16,7.60
2006,09,24,04,17,7.60
2006,09,24,04,18,7.60
2006,09,24,04,19,7.50
2006,09,24,04,20,7.50
2006,09,24,04,21,7.50
2006,09,24,04,22,7.50
2006,09,24,04,23,7.50
2006,09,24,04,24,7.40
2006,09,24,04,25,7.40
2006,09,24,04,26,7.40
2006,09,24,04,27,7.40
2006,09,24,04,28,7.40
2006,09,24,04,29,7.40
2006,09,24,04,30,7.30
2006,09,24,04,31,7.30
2006,09,24,04,32,7.30
2006,09,24,04,33,7.30
2006,09,24,04,34,7.30
2006,09,24,04,35,7.30
2006,09,24,04,36,7.30
2006,09,24,04,37,7.30
2006,09,24,04,38,7.30
2006,09,24,04,39,7.30
2006,09,24,04,40,7.30
2006,09,24,04,41,7.30
2006,09,24,04,42,7.30
2006,09,24,04,43,7.30
2006,09,24,04,44,7.30
2006,09,24,04,45,7.30
2006,09,24,04,46,7.30
2006,09,24,04,47,7.30
2006,09,24,04,48,7.30
2006,09,24,04,49,7.30
2006,09,24,04,50,7.30
2006,09,24,04,51,7.30
2006,09,24,04,52,7.30
2006,09,24,04,53,7.30
2006,09,24,04,54,7.30
2006,09,24,04,55,7.30
2006,09,24,04,56,7.30
2006,09,24,04,57,7.30
2006,09,24,04,58,7.30
2006,09,24,04,59,7.30
2006,09,24,05,00,7.30
2006,09,24,05,01,7.30
2006,09,24,05,02,7.30
2006,09,24,05,03,7.30
2006,09,24,05,04,7.30
2006,09,24,05,05,7.40
2006,09,24,05,06,7.50
2006,09,24,05,07,7.60
2006,09,24,05,08,7.60
2006,09,24,05,09,7.70
2006,09,24,05,10,7.80
2006,09,24,05,11,7.80
2006,09,24,05,12,7.80
2006,09,24,05,13,7.80
2006,09,24,05,14,7.80
2006,09,24,05,15,7.80
2006,09,24,05,16,7.80
2006,09,24,05,17,7.80
2006,09,24,05,18,7.80
2006,09,24,05,19,7.80
2006,09,24,05,20,7.80
2006,09,24,05,21,7.70
2006,09,24,05,22,7.70
2006,09,24,05,23,7.70
2006,09,24,05,24,7.70
2006,09,24,05,25,7.70
2006,09,24,05,26,7.60
2006,09,24,05,27,7.60
2006,09,24,05,28,7.60
2006,09,24,05,29,7.50
2006,09,24,05,30,7.50
2006,09,24,05,31,7.50
2006,09,24,05,32,7.50
2006,09,24,05,33,7.40
2006,09,24,05,34,7.40
2006,09,24,05,35,7.40
2006,09,24,05,36,7.40
2006,09,24,05,37,7.40
2006,09,24,05,38,7.40
2006,09,24,05,39,7.40
2006,09,24,05,40,7.40
2006,09,24,05,41,7.30
2006,09,24,05,42,7.30
2006,09,24,05,43,7.30
2006,09,24,05,44,7.30
2006,09,24,05,45,7.30
2006,09,24,05,46,7.30
2006,09,24,05,47,7.30
2006,09,24,05,48,7.30
2006,09,24,05,49,7.30
2006,09,24,05,50,7.30
2006,09,24,05,51,7.30
2006,09,24,05,52,7.30
2006,09,24,05,53,7.30
2006,09,24,05,54,7.30
2006,09,24,05,55,7.30
2006,09,24,05,56,7.30
2006,09,24,05,57,7.30
2006,09,24,05,58,7.20
2006,09,24,05,59,7.20
2006,09,24,06,00,7.10
2006,09,24,06,01,7.10
2006,09,24,06,02,7.10
2006,09,24,06,03,7.10
2006,09,24,06,04,7.10
2006,09,24,06,05,7.00
2006,09,24,06,06,7.00
2006,09,24,06,07,7.00
2006,09,24,06,08,7.00
2006,09,24,06,09,6.90
2006,09,24,06,10,6.90
2006,09,24,06,11,6.90
2006,09,24,06,12,6.90
2006,09,24,06,13,6.80
2006,09,24,06,14,6.80
2006,09,24,06,15,6.80
2006,09,24,06,16,6.80
2006,09,24,06,17,6.80
2006,09,24,06,18,6.80
2006,09,24,06,19,6.80
2006,09,24,06,20,6.80
2006,09,24,06,21,6.80
2006,09,24,06,22,6.90
2006,09,24,06,23,6.90
2006,09,24,06,24,6.90
2006,09,24,06,25,7.00
2006,09,24,06,26,7.00
2006,09,24,06,27,7.10
2006,09,24,06,28,7.20
2006,09,24,06,29,7.30
2006,09,24,06,30,7.30
2006,09,24,06,31,7.30
2006,09,24,06,32,7.30
2006,09,24,06,33,7.40
2006,09,24,06,34,7.40
2006,09,24,06,35,7.40
2006,09,24,06,36,7.40
2006,09,24,06,37,7.50
2006,09,24,06,38,7.60
2006,09,24,06,39,7.60
2006,09,24,06,40,7.60
2006,09,24,06,41,7.70
2006,09,24,06,42,7.60
2006,09,24,06,43,7.60
2006,09,24,06,44,7.50
2006,09,24,06,45,7.40
2006,09,24,06,46,7.30
2006,09,24,06,47,7.30
2006,09,24,06,48,7.30
2006,09,24,06,49,7.20
2006,09,24,06,50,7.20
2006,09,24,06,51,7.20
2006,09,24,06,52,7.10
2006,09,24,06,53,7.10
2006,09,24,06,54,7.10
2006,09,24,06,55,7.00
2006,09,24,06,56,7.00
2006,09,24,06,57,7.00
2006,09,24,06,58,6.90
2006,09,24,06,59,6.90
2006,09,24,07,00,6.90
2006,09,24,07,01,6.80
2006,09,24,07,02,6.80
2006,09,24,07,03,6.80
2006,09,24,07,04,6.90
2006,09,24,07,05,6.90
2006,09,24,07,06,6.90
2006,09,24,07,07,6.90
2006,09,24,07,08,6.90
2006,09,24,07,09,6.90
2006,09,24,07,10,6.90
2006,09,24,07,11,6.90
2006,09,24,07,12,6.90
2006,09,24,07,13,6.90
2006,09,24,07,14,6.90
2006,09,24,07,15,6.90
2006,09,24,07,16,6.90
2006,09,24,07,17,6.90
2006,09,24,07,18,6.90
2006,09,24,07,19,6.90
2006,09,24,07,20,6.90
2006,09,24,07,21,6.80
2006,09,24,07,22,6.80
2006,09,24,07,23,6.80
2006,09,24,07,24,6.80
2006,09,24,07,25,6.80
2006,09,24,07,26,6.80
2006,09,24,07,27,6.70
2006,09,24,07,28,6.70
2006,09,24,07,29,6.60
2006,09,24,07,30,6.60
2006,09,24,07,31,6.60
2006,09,24,07,32,6.60
2006,09,24,07,33,6.60
2006,09,24,07,34,6.50
2006,09,24,07,35,6.40
2006,09,24,07,36,6.40
2006,09,24,07,37,6.40
2006,09,24,07,38,6.40
2006,09,24,07,39,6.40
2006,09,24,07,40,6.50
2006,09,24,07,41,6.60
2006,09,24,07,42,6.60
2006,09,24,07,43,6.60
2006,09,24,07,44,6.70
2006,09,24,07,45,6.80
2006,09,24,07,46,6.80
2006,09,24,07,47,6.90
2006,09,24,07,48,7.00
2006,09,24,07,49,7.10
2006,09,24,07,50,7.20
2006,09,24,07,51,7.20
2006,09,24,07,52,7.30
2006,09,24,07,53,7.40
2006,09,24,07,54,7.50
2006,09,24,07,55,7.60
2006,09,24,07,56,7.70
2006,09,24,07,57,7.90
2006,09,24,07,58,8.00
2006,09,24,07,59,8.10
2006,09,24,08,00,8.30
2006,09,24,08,01,8.40
2006,09,24,08,02,8.50
2006,09,24,08,03,8.60
2006,09,24,08,04,8.80
2006,09,24,08,05,8.90
2006,09,24,08,06,9.00
2006,09,24,08,07,9.20
2006,09,24,08,08,9.20
2006,09,24,08,09,9.30
2006,09,24,08,10,9.30
2006,09,24,08,11,9.40
2006,09,24,08,12,9.40
2006,09,24,08,13,9.40
2006,09,24,08,14,9.50
2006,09,24,08,15,9.50
2006,09,24,08,16,9.50
2006,09,24,08,17,9.50
2006,09,24,08,18,9.50
2006,09,24,08,19,9.50
2006,09,24,08,20,9.50
2006,09,24,08,21,9.60
2006,09,24,08,22,9.70
2006,09,24,08,23,9.70
2006,09,24,08,24,9.80
2006,09,24,08,25,10.00
2006,09,24,08,26,10.10
2006,09,24,08,27,10.30
2006,09,24,08,28,10.40
2006,09,24,08,29,10.50
2006,09,24,08,30,10.60
2006,09,24,08,31,10.70
2006,09,24,08,32,10.80
2006,09,24,08,33,11.00
2006,09,24,08,34,11.20
2006,09,24,08,35,11.40
2006,09,24,08,36,11.60
2006,09,24,08,37,11.80
2006,09,24,08,38,11.90
2006,09,24,08,39,12.10
2006,09,24,08,40,12.30
2006,09,24,08,41,12.50
2006,09,24,08,42,12.70
2006,09,24,08,43,12.90
2006,09,24,08,44,13.00
2006,09,24,08,45,13.20
2006,09,24,08,46,13.30
2006,09,24,08,47,13.40
2006,09,24,08,48,13.60
2006,09,24,08,49,13.70
2006,09,24,08,50,13.90
2006,09,24,08,51,14.00
2006,09,24,08,52,14.10
2006,09,24,08,53,14.20
2006,09,24,08,54,14.40
2006,09,24,08,55,14.50
2006,09,24,08,56,14.60
2006,09,24,08,57,14.70
2006,09,24,08,58,14.80
2006,09,24,08,59,14.90
2006,09,24,09,00,15.00
2006,09,24,09,01,15.10
2006,09,24,09,02,15.10
2006,09,24,09,03,15.20
2006,09,24,09,04,15.30
2006,09,24,09,05,15.40
2006,09,24,09,06,15.50
2006,09,24,09,07,15.50
2006,09,24,09,08,15.50
2006,09,24,09,09,15.60
2006,09,24,09,10,15.60
2006,09,24,09,11,15.60
2006,09,24,09,12,15.60
2006,09,24,09,13,15.60
2006,09,24,09,14,15.60
2006,09,24,09,15,15.60
2006,09,24,09,16,15.60
2006,09,24,09,17,15.60
2006,09,24,09,18,15.60
2006,09,24,09,19,15.60
2006,09,24,09,20,15.70
2006,09,24,09,21,15.70
2006,09,24,09,22,15.70
2006,09,24,09,23,15.70
2006,09,24,09,24,15.70
2006,09,24,09,25,15.70
2006,09,24,09,26,15.70
2006,09,24,09,27,15.80
2006,09,24,09,28,15.80
2006,09,24,09,29,15.80
2006,09,24,09,30,15.90
2006,09,24,09,31,16.00
2006,09,24,09,32,16.10
2006,09,24,09,33,16.10
2006,09,24,09,34,16.10
2006,09,24,09,35,16.10
2006,09,24,09,36,16.10
2006,09,24,09,37,16.20
2006,09,24,09,38,16.20
2006,09,24,09,39,16.30
2006,09,24,09,40,16.40
2006,09,24,09,41,16.40
2006,09,24,09,42,16.40
2006,09,24,09,43,16.40
2006,09,24,09,44,16.30
2006,09,24,09,45,16.20
2006,09,24,09,46,16.20
2006,09,24,09,47,16.20
2006,09,24,09,48,16.20
2006,09,24,09,49,16.20
2006,09,24,09,50,16.30
2006,09,24,09,51,16.30
2006,09,24,09,52,16.40
2006,09,24,09,53,16.40
2006,09,24,09,54,16.30
2006,09,24,09,55,16.40
2006,09,24,09,56,16.40
2006,09,24,09,57,16.40
2006,09,24,09,58,16.40
2006,09,24,09,59,16.40
2006,09,24,10,00,16.40
2006,09,24,10,01,16.50
2006,09,24,10,02,16.60
2006,09,24,10,03,16.70
2006,09,24,10,04,16.70
2006,09,24,10,05,16.70
2006,09,24,10,06,16.70
2006,09,24,10,07,16.70
2006,09,24,10,08,16.70
2006,09,24,10,09,16.70
2006,09,24,10,10,16.80
2006,09,24,10,11,16.80
2006,09,24,10,12,16.80
2006,09,24,10,13,16.80
2006,09,24,10,14,16.90
2006,09,24,10,15,17.00
2006,09,24,10,16,17.00
2006,09,24,10,17,17.00
2006,09,24,10,18,17.10
2006,09,24,10,19,17.10
2006,09,24,10,20,17.20
2006,09,24,10,21,17.30
2006,09,24,10,22,17.30
2006,09,24,10,23,17.30
2006,09,24,10,24,17.40
2006,09,24,10,25,17.40
2006,09,24,10,26,17.50
2006,09,24,10,27,17.50
2006,09,24,10,28,17.50
2006,09,24,10,29,17.50
2006,09,24,10,30,17.50
2006,09,24,10,31,17.50
2006,09,24,10,32,17.50
2006,09,24,10,33,17.60
2006,09,24,10,34,17.60
2006,09,24,10,35,17.60
2006,09,24,10,36,17.60
2006,09,24,10,37,17.50
2006,09,24,10,38,17.50
2006,09,24,10,39,17.60
2006,09,24,10,40,17.60
2006,09,24,10,41,17.60
2006,09,24,10,42,17.60
2006,09,24,10,43,17.60
2006,09,24,10,44,17.60
2006,09,24,10,45,17.60
2006,09,24,10,46,17.70
2006,09,24,10,47,17.70
2006,09,24,10,48,17.80
2006,09,24,10,49,17.80
2006,09,24,10,50,17.80
2006,09,24,10,51,17.80
2006,09,24,10,52,17.90
2006,09,24,10,53,18.00
2006,09,24,10,54,18.10
2006,09,24,10,55,18.20
2006,09,24,10,56,18.30
2006,09,24,10,57,18.30
2006,09,24,10,58,18.30
2006,09,24,10,59,18.30
2006,09,24,11,00,18.30
2006,09,24,11,01,18.30
2006,09,24,11,02,18.30
2006,09,24,11,03,18.40
2006,09,24,11,04,18.40
2006,09,24,11,05,18.50
2006,09,24,11,06,18.50
2006,09,24,11,07,18.50
2006,09,24,11,08,18.50
2006,09,24,11,09,18.40
2006,09,24,11,10,18.40
2006,09,24,11,11,18.30
2006,09,24,11,12,18.40
2006,09,24,11,13,18.40
2006,09,24,11,14,18.40
2006,09,24,11,15,18.40
2006,09,24,11,16,18.40
2006,09,24,11,17,18.40
2006,09,24,11,18,18.40
2006,09,24,11,19,18.50
2006,09,24,11,20,18.50
2006,09,24,11,21,18.60
2006,09,24,11,22,18.50
2006,09,24,11,23,18.40
2006,09,24,11,24,18.40
2006,09,24,11,25,18.30
2006,09,24,11,26,18.20
2006,09,24,11,27,18.20
2006,09,24,11,28,18.20
2006,09,24,11,29,18.20
2006,09,24,11,30,18.20
2006,09,24,11,31,18.30
2006,09,24,11,32,18.30
2006,09,24,11,33,18.30
2006,09,24,11,34,18.20
2006,09,24,11,35,18.30
2006,09,24,11,36,18.40
2006,09,24,11,37,18.40
2006,09,24,11,38,18.40
2006,09,24,11,39,18.40
2006,09,24,11,40,18.40
2006,09,24,11,41,18.40
2006,09,24,11,42,18.40
2006,09,24,11,43,18.40
2006,09,24,11,44,18.50
2006,09,24,11,45,18.60
2006,09,24,11,46,18.60
2006,09,24,11,47,18.70
2006,09,24,11,48,18.80
2006,09,24,11,49,18.80
2006,09,24,11,50,18.90
2006,09,24,11,51,18.90
2006,09,24,11,52,18.90
2006,09,24,11,53,18.90
2006,09,24,11,54,18.90
2006,09,24,11,55,18.90
2006,09,24,11,56,18.90
2006,09,24,11,57,18.90
2006,09,24,11,58,18.90
2006,09,24,11,59,18.90
2006,09,24,12,00,18.80
2006,09,24,12,01,18.80
2006,09,24,12,02,18.70
2006,09,24,12,03,18.70
2006,09,24,12,04,18.80
2006,09,24,12,05,18.90
2006,09,24,12,06,18.90
2006,09,24,12,07,18.90
2006,09,24,12,08,18.90
2006,09,24,12,09,18.80
2006,09,24,12,10,18.80
2006,09,24,12,11,18.80
2006,09,24,12,12,18.80
2006,09,24,12,13,18.80
2006,09,24,12,14,18.80
2006,09,24,12,15,18.80
2006,09,24,12,16,18.90
2006,09,24,12,17,18.90
2006,09,24,12,18,18.90
2006,09,24,12,19,19.00
2006,09,24,12,20,19.10
2006,09,24,12,21,19.10
2006,09,24,12,22,19.10
2006,09,24,12,23,19.20
2006,09,24,12,24,19.30
2006,09,24,12,25,19.30
2006,09,24,12,26,19.30
2006,09,24,12,27,19.30
2006,09,24,12,28,19.30
2006,09,24,12,29,19.40
2006,09,24,12,30,19.50
2006,09,24,12,31,19.60
2006,09,24,12,32,19.70
2006,09,24,12,33,19.70
2006,09,24,12,34,19.70
2006,09,24,12,35,19.60
2006,09,24,12,36,19.60
2006,09,24,12,37,19.60
2006,09,24,12,38,19.70
2006,09,24,12,39,19.80
2006,09,24,12,40,19.80
2006,09,24,12,41,19.80
2006,09,24,12,42,19.90
2006,09,24,12,43,19.90
2006,09,24,12,44,19.90
2006,09,24,12,45,19.90
2006,09,24,12,46,20.00
2006,09,24,12,47,20.10
2006,09,24,12,48,20.10
2006,09,24,12,49,20.10
2006,09,24,12,50,20.10
2006,09,24,12,51,20.10
2006,09,24,12,52,20.10
2006,09,24,12,53,20.20
2006,09,24,12,54,20.20
2006,09,24,12,55,20.20
2006,09,24,12,56,20.20
2006,09,24,12,57,20.20
2006,09,24,12,58,20.30
2006,09,24,12,59,20.30
2006,09,24,13,00,20.30
2006,09,24,13,01,20.20
2006,09,24,13,02,20.10
2006,09,24,13,03,20.20
2006,09,24,13,04,20.20
2006,09,24,13,05,20.20
2006,09,24,13,06,20.20
2006,09,24,13,07,20.40
2006,09,24,13,08,20.50
2006,09,24,13,09,20.50
2006,09,24,13,10,20.40
2006,09,24,13,11,20.40
2006,09,24,13,12,20.40
2006,09,24,13,13,20.40
2006,09,24,13,14,20.30
2006,09,24,13,15,20.30
2006,09,24,13,16,20.20
2006,09,24,13,17,20.20
2006,09,24,13,18,20.20
2006,09,24,13,19,20.20
2006,09,24,13,20,20.20
2006,09,24,13,21,20.20
2006,09,24,13,22,20.20
2006,09,24,13,23,20.30
2006,09,24,13,24,20.30
2006,09,24,13,25,20.30
2006,09,24,13,26,20.20
2006,09,24,13,27,20.20
2006,09,24,13,28,20.10
2006,09,24,13,29,20.10
2006,09,24,13,30,20.10
2006,09,24,13,31,20.20
2006,09,24,13,32,20.30
2006,09,24,13,33,20.30
2006,09,24,13,34,20.40
2006,09,24,13,35,20.40
2006,09,24,13,36,20.40
2006,09,24,13,37,20.40
2006,09,24,13,38,20.40
2006,09,24,13,39,20.40
2006,09,24,13,40,20.40
2006,09,24,13,41,20.50
2006,09,24,13,42,20.50
2006,09,24,13,43,20.60
2006,09,24,13,44,20.70
2006,09,24,13,45,20.80
2006,09,24,13,46,20.80
2006,09,24,13,47,20.80
2006,09,24,13,48,20.80
2006,09,24,13,49,20.70
2006,09,24,13,50,20.70
2006,09,24,13,51,20.80
2006,09,24,13,52,20.80
2006,09,24,13,53,20.80
2006,09,24,13,54,20.80
2006,09,24,13,55,20.90
2006,09,24,13,56,21.00
2006,09,24,13,57,21.10
2006,09,24,13,58,21.20
2006,09,24,13,59,21.30
2006,09,24,14,00,21.30
2006,09,24,14,01,21.30
2006,09,24,14,02,21.20
2006,09,24,14,03,21.10
2006,09,24,14,04,21.10
2006,09,24,14,05,21.10
2006,09,24,14,06,21.00
2006,09,24,14,07,20.90
2006,09,24,14,08,20.90
2006,09,24,14,09,20.90
2006,09,24,14,10,20.90
2006,09,24,14,11,20.90
2006,09,24,14,12,20.90
2006,09,24,14,13,20.90
2006,09,24,14,14,21.00
2006,09,24,14,15,21.00
2006,09,24,14,16,21.00
2006,09,24,14,17,21.00
2006,09,24,14,18,20.90
2006,09,24,14,19,20.80
2006,09,24,14,20,20.70
2006,09,24,14,21,20.70
2006,09,24,14,22,20.70
2006,09,24,14,23,20.70
2006,09,24,14,24,20.60
2006,09,24,14,25,20.60
2006,09,24,14,26,20.60
2006,09,24,14,27,20.60
2006,09,24,14,28,20.60
2006,09,24,14,29,20.60
2006,09,24,14,30,20.60
2006,09,24,14,31,20.60
2006,09,24,14,32,20.60
2006,09,24,14,33,20.60
2006,09,24,14,34,20.70
2006,09,24,14,35,20.80
2006,09,24,14,36,20.90
2006,09,24,14,37,20.90
2006,09,24,14,38,20.80
2006,09,24,14,39,20.80
2006,09,24,14,40,20.70
2006,09,24,14,41,20.70
2006,09,24,14,42,20.70
2006,09,24,14,43,20.80
2006,09,24,14,44,20.80
2006,09,24,14,45,20.80
2006,09,24,14,46,20.80
2006,09,24,14,47,20.80
2006,09,24,14,48,20.80
2006,09,24,14,49,20.70
2006,09,24,14,50,20.70
2006,09,24,14,51,20.70
2006,09,24,14,52,20.70
2006,09,24,14,53,20.80
2006,09,24,14,54,20.80
2006,09,24,14,55,20.80
2006,09,24,14,56,20.80
2006,09,24,14,57,20.90
2006,09,24,14,58,20.90
2006,09,24,14,59,20.90
2006,09,24,15,00,21.00
2006,09,24,15,01,21.00
2006,09,24,15,02,21.00
2006,09,24,15,03,21.10
2006,09,24,15,04,21.00
2006,09,24,15,05,21.00
2006,09,24,15,06,21.00
2006,09,24,15,07,21.00
2006,09,24,15,08,21.10
2006,09,24,15,09,21.10
2006,09,24,15,10,21.20
2006,09,24,15,11,21.20
2006,09,24,15,12,21.20
2006,09,24,15,13,21.20
2006,09,24,15,14,21.20
2006,09,24,15,15,21.10
2006,09,24,15,16,21.10
2006,09,24,15,17,21.10
2006,09,24,15,18,21.20
2006,09,24,15,19,21.30
2006,09,24,15,20,21.30
2006,09,24,15,21,21.50
2006,09,24,15,22,21.60
2006,09,24,15,23,21.50
2006,09,24,15,24,21.50
2006,09,24,15,25,21.40
2006,09,24,15,26,21.40
2006,09,24,15,27,21.30
2006,09,24,15,28,21.30
2006,09,24,15,29,21.30
2006,09,24,15,30,21.30
2006,09,24,15,31,21.30
2006,09,24,15,32,21.30
2006,09,24,15,33,21.40
2006,09,24,15,34,21.40
2006,09,24,15,35,21.40
2006,09,24,15,36,21.40
2006,09,24,15,37,21.40
2006,09,24,15,38,21.40
2006,09,24,15,39,21.40
2006,09,24,15,40,21.50
2006,09,24,15,41,21.50
2006,09,24,15,42,21.40
2006,09,24,15,43,21.40
2006,09,24,15,44,21.40
2006,09,24,15,45,21.40
2006,09,24,15,46,21.50
2006,09,24,15,47,21.60
2006,09,24,15,48,21.70
2006,09,24,15,49,21.70
2006,09,24,15,50,21.60
2006,09,24,15,51,21.70
2006,09,24,15,52,21.60
2006,09,24,15,53,21.60
2006,09,24,15,54,21.60
2006,09,24,15,55,21.50
2006,09,24,15,56,21.60
2006,09,24,15,57,21.60
2006,09,24,15,58,21.60
2006,09,24,15,59,21.60
2006,09,24,16,00,21.60
2006,09,24,16,01,21.60
2006,09,24,16,02,21.60
2006,09,24,16,03,21.60
2006,09,24,16,04,21.60
2006,09,24,16,05,21.60
2006,09,24,16,06,21.60
2006,09,24,16,07,21.60
2006,09,24,16,08,21.60
2006,09,24,16,09,21.70
2006,09,24,16,10,21.70
2006,09,24,16,11,21.70
2006,09,24,16,12,21.70
2006,09,24,16,13,21.60
2006,09,24,16,14,21.50
2006,09,24,16,15,21.40
2006,09,24,16,16,21.30
2006,09,24,16,17,21.30
2006,09,24,16,18,21.30
2006,09,24,16,19,21.30
2006,09,24,16,20,21.30
2006,09,24,16,21,21.30
2006,09,24,16,22,21.20
2006,09,24,16,23,21.20
2006,09,24,16,24,21.20
2006,09,24,16,25,21.30
2006,09,24,16,26,21.30
2006,09,24,16,27,21.30
2006,09,24,16,28,21.30
2006,09,24,16,29,21.30
2006,09,24,16,30,21.30
2006,09,24,16,31,21.30
2006,09,24,16,32,21.30
2006,09,24,16,33,21.40
2006,09,24,16,34,21.40
2006,09,24,16,35,21.50
2006,09,24,16,36,21.60
2006,09,24,16,37,21.60
2006,09,24,16,38,21.60
2006,09,24,16,39,21.50
2006,09,24,16,40,21.40
2006,09,24,16,41,21.40
2006,09,24,16,42,21.40
2006,09,24,16,43,21.30
2006,09,24,16,44,21.40
2006,09,24,16,45,21.40
2006,09,24,16,46,21.30
2006,09,24,16,47,21.30
2006,09,24,16,48,21.30
2006,09,24,16,49,21.30
2006,09,24,16,50,21.30
2006,09,24,16,51,21.30
2006,09,24,16,52,21.30
2006,09,24,16,53,21.30
2006,09,24,16,54,21.30
2006,09,24,16,55,21.30
2006,09,24,16,56,21.20
2006,09,24,16,57,21.20
2006,09,24,16,58,21.10
2006,09,24,16,59,21.10
2006,09,24,17,00,21.10
2006,09,24,17,01,21.10
2006,09,24,17,02,21.10
2006,09,24,17,03,21.10
2006,09,24,17,04,21.00
2006,09,24,17,05,21.00
2006,09,24,17,06,21.00
2006,09,24,17,07,21.00
2006,09,24,17,08,21.00
2006,09,24,17,09,21.00
2006,09,24,17,10,21.00
2006,09,24,17,11,21.00
2006,09,24,17,12,21.00
2006,09,24,17,13,21.00
2006,09,24,17,14,20.90
2006,09,24,17,15,20.90
2006,09,24,17,16,20.90
2006,09,24,17,17,21.00
2006,09,24,17,18,20.90
2006,09,24,17,19,20.90
2006,09,24,17,20,20.90
2006,09,24,17,21,20.90
2006,09,24,17,22,20.90
2006,09,24,17,23,20.80
2006,09,24,17,24,20.80
2006,09,24,17,25,20.90
2006,09,24,17,26,20.90
2006,09,24,17,27,20.90
2006,09,24,17,28,20.90
2006,09,24,17,29,20.90
2006,09,24,17,30,20.90
2006,09,24,17,31,20.90
2006,09,24,17,32,20.90
2006,09,24,17,33,20.80
2006,09,24,17,34,20.80
2006,09,24,17,35,20.80
2006,09,24,17,36,20.80
2006,09,24,17,37,20.80
2006,09,24,17,38,20.80
2006,09,24,17,39,20.80
2006,09,24,17,40,20.80
2006,09,24,17,41,20.80